Year,Month,Day,Hour,Minute,Value (Times are PST for temperature in C)
2014,05,28,00,00,11.40
2014,05,28,00,01,11.30
2014,05,28,00,02,11.30
2014,05,28,00,03,11.30
2014,05,28,00,04,11.30
2014,05,28,00,05,11.30
2014,05,28,00,06,11.30
2014,05,28,00,07,11.30
2014,05,28,00,08,11.30
2014,05,28,00,09,11.30
2014,05,28,00,10,11.30
2014,05,28,00,11,11.30
2014,05,28,00,12,11.20
2014,05,28,00,13,11.20
2014,05,28,00,14,11.20
2014,05,28,00,15,11.20
2014,05,28,00,16,11.20
2014,05,28,00,17,11.20
2014,05,28,00,18,11.20
2014,05,28,00,19,11.20
2014,05,28,00,20,11.20
2014,05,28,00,21,11.20
2014,05,28,00,22,11.20
2014,05,28,00,23,11.20
2014,05,28,00,24,11.20
2014,05,28,00,25,11.20
2014,05,28,00,26,11.20
2014,05,28,00,27,11.10
2014,05,28,00,28,11.10
2014,05,28,00,29,11.10
2014,05,28,00,30,11.10
2014,05,28,00,31,11.10
2014,05,28,00,32,11.10
2014,05,28,00,33,11.10
2014,05,28,00,34,11.10
2014,05,28,00,35,11.10
2014,05,28,00,36,11.00
2014,05,28,00,37,11.00
2014,05,28,00,38,11.00
2014,05,28,00,39,11.00
2014,05,28,00,40,11.00
2014,05,28,00,41,11.00
2014,05,28,00,42,10.90
2014,05,28,00,43,10.90
2014,05,28,00,44,10.90
2014,05,28,00,45,10.90
2014,05,28,00,46,10.90
2014,05,28,00,47,10.90
2014,05,28,00,48,10.90
2014,05,28,00,49,10.90
2014,05,28,00,50,10.90
2014,05,28,00,51,10.90
2014,05,28,00,52,10.80
2014,05,28,00,53,10.80
2014,05,28,00,54,10.80
2014,05,28,00,55,10.80
2014,05,28,00,56,10.80
2014,05,28,00,57,10.80
2014,05,28,00,58,10.80
2014,05,28,00,59,10.80
2014,05,28,01,00,10.80
2014,05,28,01,01,10.80
2014,05,28,01,02,10.80
2014,05,28,01,03,10.80
2014,05,28,01,04,10.70
2014,05,28,01,05,10.70
2014,05,28,01,06,10.70
2014,05,28,01,07,10.70
2014,05,28,01,08,10.70
2014,05,28,01,09,10.70
2014,05,28,01,10,10.70
2014,05,28,01,11,10.70
2014,05,28,01,12,10.70
2014,05,28,01,13,10.70
2014,05,28,01,14,10.70
2014,05,28,01,15,10.70
2014,05,28,01,16,10.70
2014,05,28,01,17,10.70
2014,05,28,01,18,10.70
2014,05,28,01,19,10.70
2014,05,28,01,20,10.70
2014,05,28,01,21,10.70
2014,05,28,01,22,10.70
2014,05,28,01,23,10.60
2014,05,28,01,24,10.60
2014,05,28,01,25,10.60
2014,05,28,01,26,10.60
2014,05,28,01,27,10.60
2014,05,28,01,28,10.60
2014,05,28,01,29,10.60
2014,05,28,01,30,10.60
2014,05,28,01,31,10.60
2014,05,28,01,32,10.60
2014,05,28,01,33,10.60
2014,05,28,01,34,10.60
2014,05,28,01,35,10.60
2014,05,28,01,36,10.60
2014,05,28,01,37,10.60
2014,05,28,01,38,10.60
2014,05,28,01,39,10.60
2014,05,28,01,40,10.60
2014,05,28,01,41,10.60
2014,05,28,01,42,10.60
2014,05,28,01,43,10.60
2014,05,28,01,44,10.60
2014,05,28,01,45,10.60
2014,05,28,01,46,10.60
2014,05,28,01,47,10.60
2014,05,28,01,48,10.60
2014,05,28,01,49,10.60
2014,05,28,01,50,10.70
2014,05,28,01,51,10.70
2014,05,28,01,52,10.70
2014,05,28,01,53,10.70
2014,05,28,01,54,10.70
2014,05,28,01,55,10.70
2014,05,28,01,56,10.70
2014,05,28,01,57,10.70
2014,05,28,01,58,10.60
2014,05,28,01,59,10.60
2014,05,28,02,00,10.60
2014,05,28,02,01,10.60
2014,05,28,02,02,10.60
2014,05,28,02,03,10.60
2014,05,28,02,04,10.60
2014,05,28,02,05,10.60
2014,05,28,02,06,10.60
2014,05,28,02,07,10.60
2014,05,28,02,08,10.60
2014,05,28,02,09,10.60
2014,05,28,02,10,10.60
2014,05,28,02,11,10.60
2014,05,28,02,12,10.60
2014,05,28,02,13,10.60
2014,05,28,02,14,10.60
2014,05,28,02,15,10.60
2014,05,28,02,16,10.60
2014,05,28,02,17,10.60
2014,05,28,02,18,10.60
2014,05,28,02,19,10.60
2014,05,28,02,20,10.60
2014,05,28,02,21,10.50
2014,05,28,02,22,10.50
2014,05,28,02,23,10.50
2014,05,28,02,24,10.50
2014,05,28,02,25,10.50
2014,05,28,02,26,10.50
2014,05,28,02,27,10.50
2014,05,28,02,28,10.50
2014,05,28,02,29,10.50
2014,05,28,02,30,10.50
2014,05,28,02,31,10.50
2014,05,28,02,32,10.50
2014,05,28,02,33,10.40
2014,05,28,02,34,10.40
2014,05,28,02,35,10.40
2014,05,28,02,36,10.40
2014,05,28,02,37,10.40
2014,05,28,02,38,10.40
2014,05,28,02,39,10.40
2014,05,28,02,40,10.40
2014,05,28,02,41,10.40
2014,05,28,02,42,10.40
2014,05,28,02,43,10.30
2014,05,28,02,44,10.30
2014,05,28,02,45,10.30
2014,05,28,02,46,10.30
2014,05,28,02,47,10.30
2014,05,28,02,48,10.30
2014,05,28,02,49,10.30
2014,05,28,02,50,10.30
2014,05,28,02,51,10.30
2014,05,28,02,52,10.30
2014,05,28,02,53,10.30
2014,05,28,02,54,10.30
2014,05,28,02,55,10.30
2014,05,28,02,56,10.30
2014,05,28,02,57,10.30
2014,05,28,02,58,10.30
2014,05,28,02,59,10.30
2014,05,28,03,00,10.30
2014,05,28,03,01,10.30
2014,05,28,03,02,10.30
2014,05,28,03,03,10.30
2014,05,28,03,04,10.30
2014,05,28,03,05,10.30
2014,05,28,03,06,10.30
2014,05,28,03,07,10.30
2014,05,28,03,08,10.30
2014,05,28,03,09,10.30
2014,05,28,03,10,10.30
2014,05,28,03,11,10.30
2014,05,28,03,12,10.40
2014,05,28,03,13,10.40
2014,05,28,03,14,10.40
2014,05,28,03,15,10.40
2014,05,28,03,16,10.40
2014,05,28,03,17,10.40
2014,05,28,03,18,10.40
2014,05,28,03,19,10.40
2014,05,28,03,20,10.50
2014,05,28,03,21,10.50
2014,05,28,03,22,10.50
2014,05,28,03,23,10.50
2014,05,28,03,24,10.50
2014,05,28,03,25,10.50
2014,05,28,03,26,10.50
2014,05,28,03,27,10.60
2014,05,28,03,28,10.60
2014,05,28,03,29,10.60
2014,05,28,03,30,10.60
2014,05,28,03,31,10.60
2014,05,28,03,32,10.60
2014,05,28,03,33,10.60
2014,05,28,03,34,10.60
2014,05,28,03,35,10.70
2014,05,28,03,36,10.70
2014,05,28,03,37,10.60
2014,05,28,03,38,10.60
2014,05,28,03,39,10.60
2014,05,28,03,40,10.60
2014,05,28,03,41,10.60
2014,05,28,03,42,10.60
2014,05,28,03,43,10.60
2014,05,28,03,44,10.60
2014,05,28,03,45,10.50
2014,05,28,03,46,10.50
2014,05,28,03,47,10.50
2014,05,28,03,48,10.50
2014,05,28,03,49,10.40
2014,05,28,03,50,10.40
2014,05,28,03,51,10.40
2014,05,28,03,52,10.40
2014,05,28,03,53,10.40
2014,05,28,03,54,10.40
2014,05,28,03,55,10.40
2014,05,28,03,56,10.30
2014,05,28,03,57,10.30
2014,05,28,03,58,10.30
2014,05,28,03,59,10.30
2014,05,28,04,00,10.30
2014,05,28,04,01,10.20
2014,05,28,04,02,10.20
2014,05,28,04,03,10.20
2014,05,28,04,04,10.20
2014,05,28,04,05,10.20
2014,05,28,04,06,10.10
2014,05,28,04,07,10.10
2014,05,28,04,08,10.10
2014,05,28,04,09,10.10
2014,05,28,04,10,10.10
2014,05,28,04,11,10.00
2014,05,28,04,12,10.00
2014,05,28,04,13,10.00
2014,05,28,04,14,10.00
2014,05,28,04,15,9.90
2014,05,28,04,16,9.90
2014,05,28,04,17,9.90
2014,05,28,04,18,9.90
2014,05,28,04,19,9.80
2014,05,28,04,20,9.80
2014,05,28,04,21,9.80
2014,05,28,04,22,9.80
2014,05,28,04,23,9.70
2014,05,28,04,24,9.70
2014,05,28,04,25,9.70
2014,05,28,04,26,9.70
2014,05,28,04,27,9.60
2014,05,28,04,28,9.60
2014,05,28,04,29,9.60
2014,05,28,04,30,9.60
2014,05,28,04,31,9.60
2014,05,28,04,32,9.60
2014,05,28,04,33,9.60
2014,05,28,04,34,9.60
2014,05,28,04,35,9.60
2014,05,28,04,36,9.60
2014,05,28,04,37,9.60
2014,05,28,04,38,9.60
2014,05,28,04,39,9.60
2014,05,28,04,40,9.60
2014,05,28,04,41,9.50
2014,05,28,04,42,9.50
2014,05,28,04,43,9.40
2014,05,28,04,44,9.40
2014,05,28,04,45,9.40
2014,05,28,04,46,9.30
2014,05,28,04,47,9.30
2014,05,28,04,48,9.30
2014,05,28,04,49,9.30
2014,05,28,04,50,9.20
2014,05,28,04,51,9.20
2014,05,28,04,52,9.20
2014,05,28,04,53,9.20
2014,05,28,04,54,9.20
2014,05,28,04,55,9.20
2014,05,28,04,56,9.20
2014,05,28,04,57,9.20
2014,05,28,04,58,9.20
2014,05,28,04,59,9.30
2014,05,28,05,00,9.30
2014,05,28,05,01,9.30
2014,05,28,05,02,9.30
2014,05,28,05,03,9.30
2014,05,28,05,04,9.30
2014,05,28,05,05,9.30
2014,05,28,05,06,9.30
2014,05,28,05,07,9.30
2014,05,28,05,08,9.40
2014,05,28,05,09,9.40
2014,05,28,05,10,9.40
2014,05,28,05,11,9.40
2014,05,28,05,12,9.40
2014,05,28,05,13,9.40
2014,05,28,05,14,9.40
2014,05,28,05,15,9.50
2014,05,28,05,16,9.50
2014,05,28,05,17,9.50
2014,05,28,05,18,9.50
2014,05,28,05,19,9.50
2014,05,28,05,20,9.50
2014,05,28,05,21,9.50
2014,05,28,05,22,9.50
2014,05,28,05,23,9.50
2014,05,28,05,24,9.40
2014,05,28,05,25,9.40
2014,05,28,05,26,9.40
2014,05,28,05,27,9.40
2014,05,28,05,28,9.40
2014,05,28,05,29,9.40
2014,05,28,05,30,9.40
2014,05,28,05,31,9.30
2014,05,28,05,32,9.30
2014,05,28,05,33,9.30
2014,05,28,05,34,9.30
2014,05,28,05,35,9.30
2014,05,28,05,36,9.30
2014,05,28,05,37,9.30
2014,05,28,05,38,9.30
2014,05,28,05,39,9.30
2014,05,28,05,40,9.30
2014,05,28,05,41,9.20
2014,05,28,05,42,9.20
2014,05,28,05,43,9.20
2014,05,28,05,44,9.20
2014,05,28,05,45,9.20
2014,05,28,05,46,9.20
2014,05,28,05,47,9.20
2014,05,28,05,48,9.20
2014,05,28,05,49,9.20
2014,05,28,05,50,9.20
2014,05,28,05,51,9.20
2014,05,28,05,52,9.20
2014,05,28,05,53,9.20
2014,05,28,05,54,9.20
2014,05,28,05,55,9.20
2014,05,28,05,56,9.20
2014,05,28,05,57,9.20
2014,05,28,05,58,9.20
2014,05,28,05,59,9.20
2014,05,28,06,00,9.20
2014,05,28,06,01,9.20
2014,05,28,06,02,9.20
2014,05,28,06,03,9.30
2014,05,28,06,04,9.30
2014,05,28,06,05,9.30
2014,05,28,06,06,9.40
2014,05,28,06,07,9.40
2014,05,28,06,08,9.50
2014,05,28,06,09,9.50
2014,05,28,06,10,9.60
2014,05,28,06,11,9.60
2014,05,28,06,12,9.60
2014,05,28,06,13,9.70
2014,05,28,06,14,9.70
2014,05,28,06,15,9.70
2014,05,28,06,16,9.70
2014,05,28,06,17,9.80
2014,05,28,06,18,9.80
2014,05,28,06,19,9.80
2014,05,28,06,20,9.80
2014,05,28,06,21,9.80
2014,05,28,06,22,9.80
2014,05,28,06,23,9.90
2014,05,28,06,24,9.90
2014,05,28,06,25,9.90
2014,05,28,06,26,10.00
2014,05,28,06,27,10.00
2014,05,28,06,28,10.10
2014,05,28,06,29,10.10
2014,05,28,06,30,10.20
2014,05,28,06,31,10.20
2014,05,28,06,32,10.30
2014,05,28,06,33,10.30
2014,05,28,06,34,10.40
2014,05,28,06,35,10.40
2014,05,28,06,36,10.50
2014,05,28,06,37,10.50
2014,05,28,06,38,10.60
2014,05,28,06,39,10.60
2014,05,28,06,40,10.70
2014,05,28,06,41,10.70
2014,05,28,06,42,10.80
2014,05,28,06,43,10.80
2014,05,28,06,44,10.80
2014,05,28,06,45,10.90
2014,05,28,06,46,11.00
2014,05,28,06,47,11.00
2014,05,28,06,48,11.10
2014,05,28,06,49,11.20
2014,05,28,06,50,11.30
2014,05,28,06,51,11.30
2014,05,28,06,52,11.40
2014,05,28,06,53,11.50
2014,05,28,06,54,11.60
2014,05,28,06,55,11.70
2014,05,28,06,56,11.80
2014,05,28,06,57,11.80
2014,05,28,06,58,11.90
2014,05,28,06,59,12.00
2014,05,28,07,00,12.00
2014,05,28,07,01,12.10
2014,05,28,07,02,12.20
2014,05,28,07,03,12.20
2014,05,28,07,04,12.20
2014,05,28,07,05,12.30
2014,05,28,07,06,12.30
2014,05,28,07,07,12.40
2014,05,28,07,08,12.40
2014,05,28,07,09,12.40
2014,05,28,07,10,12.40
2014,05,28,07,11,12.40
2014,05,28,07,12,12.50
2014,05,28,07,13,12.50
2014,05,28,07,14,12.50
2014,05,28,07,15,12.60
2014,05,28,07,16,12.60
2014,05,28,07,17,12.60
2014,05,28,07,18,12.70
2014,05,28,07,19,12.70
2014,05,28,07,20,12.70
2014,05,28,07,21,12.70
2014,05,28,07,22,12.70
2014,05,28,07,23,12.70
2014,05,28,07,24,12.70
2014,05,28,07,25,12.70
2014,05,28,07,26,12.70
2014,05,28,07,27,12.70
2014,05,28,07,28,12.70
2014,05,28,07,29,12.80
2014,05,28,07,30,12.80
2014,05,28,07,31,12.80
2014,05,28,07,32,12.80
2014,05,28,07,33,12.80
2014,05,28,07,34,12.80
2014,05,28,07,35,12.80
2014,05,28,07,36,12.80
2014,05,28,07,37,12.80
2014,05,28,07,38,12.80
2014,05,28,07,39,12.80
2014,05,28,07,40,12.90
2014,05,28,07,41,12.90
2014,05,28,07,42,12.90
2014,05,28,07,43,12.90
2014,05,28,07,44,13.00
2014,05,28,07,45,13.00
2014,05,28,07,46,13.10
2014,05,28,07,47,13.10
2014,05,28,07,48,13.10
2014,05,28,07,49,13.20
2014,05,28,07,50,13.20
2014,05,28,07,51,13.20
2014,05,28,07,52,13.30
2014,05,28,07,53,13.30
2014,05,28,07,54,13.30
2014,05,28,07,55,13.30
2014,05,28,07,56,13.30
2014,05,28,07,57,13.30
2014,05,28,07,58,13.30
2014,05,28,07,59,13.30
2014,05,28,08,00,13.30
2014,05,28,08,01,13.30
2014,05,28,08,02,13.40
2014,05,28,08,03,13.40
2014,05,28,08,04,13.40
2014,05,28,08,05,13.40
2014,05,28,08,06,13.50
2014,05,28,08,07,13.50
2014,05,28,08,08,13.50
2014,05,28,08,09,13.50
2014,05,28,08,10,13.50
2014,05,28,08,11,13.60
2014,05,28,08,12,13.60
2014,05,28,08,13,13.60
2014,05,28,08,14,13.70
2014,05,28,08,15,13.70
2014,05,28,08,16,13.70
2014,05,28,08,17,13.80
2014,05,28,08,18,13.80
2014,05,28,08,19,13.80
2014,05,28,08,20,13.80
2014,05,28,08,21,13.70
2014,05,28,08,22,13.70
2014,05,28,08,23,13.70
2014,05,28,08,24,13.70
2014,05,28,08,25,13.70
2014,05,28,08,26,13.70
2014,05,28,08,27,13.80
2014,05,28,08,28,13.80
2014,05,28,08,29,13.80
2014,05,28,08,30,13.80
2014,05,28,08,31,13.80
2014,05,28,08,32,13.90
2014,05,28,08,33,13.90
2014,05,28,08,34,13.90
2014,05,28,08,35,13.90
2014,05,28,08,36,13.80
2014,05,28,08,37,13.80
2014,05,28,08,38,13.80
2014,05,28,08,39,13.80
2014,05,28,08,40,13.80
2014,05,28,08,41,13.80
2014,05,28,08,42,13.80
2014,05,28,08,43,13.80
2014,05,28,08,44,13.80
2014,05,28,08,45,13.80
2014,05,28,08,46,13.90
2014,05,28,08,47,13.90
2014,05,28,08,48,13.90
2014,05,28,08,49,13.90
2014,05,28,08,50,14.00
2014,05,28,08,51,14.00
2014,05,28,08,52,14.10
2014,05,28,08,53,14.10
2014,05,28,08,54,14.20
2014,05,28,08,55,14.20
2014,05,28,08,56,14.20
2014,05,28,08,57,14.20
2014,05,28,08,58,14.20
2014,05,28,08,59,14.20
2014,05,28,09,00,14.20
2014,05,28,09,01,14.20
2014,05,28,09,02,14.20
2014,05,28,09,03,14.30
2014,05,28,09,04,14.40
2014,05,28,09,05,14.40
2014,05,28,09,06,14.50
2014,05,28,09,07,14.60
2014,05,28,09,08,14.70
2014,05,28,09,09,14.70
2014,05,28,09,10,14.70
2014,05,28,09,11,14.80
2014,05,28,09,12,14.80
2014,05,28,09,13,14.80
2014,05,28,09,14,14.80
2014,05,28,09,15,14.80
2014,05,28,09,16,14.80
2014,05,28,09,17,14.80
2014,05,28,09,18,14.80
2014,05,28,09,19,14.70
2014,05,28,09,20,14.70
2014,05,28,09,21,14.70
2014,05,28,09,22,14.70
2014,05,28,09,23,14.70
2014,05,28,09,24,14.70
2014,05,28,09,25,14.70
2014,05,28,09,26,14.70
2014,05,28,09,27,14.70
2014,05,28,09,28,14.80
2014,05,28,09,29,14.80
2014,05,28,09,30,14.80
2014,05,28,09,31,14.80
2014,05,28,09,32,14.80
2014,05,28,09,33,14.80
2014,05,28,09,34,14.90
2014,05,28,09,35,14.90
2014,05,28,09,36,14.90
2014,05,28,09,37,14.90
2014,05,28,09,38,14.90
2014,05,28,09,39,14.90
2014,05,28,09,40,15.00
2014,05,28,09,41,15.00
2014,05,28,09,42,15.10
2014,05,28,09,43,15.10
2014,05,28,09,44,15.10
2014,05,28,09,45,15.20
2014,05,28,09,46,15.20
2014,05,28,09,47,15.30
2014,05,28,09,48,15.30
2014,05,28,09,49,15.30
2014,05,28,09,50,15.30
2014,05,28,09,51,15.40
2014,05,28,09,52,15.50
2014,05,28,09,53,15.50
2014,05,28,09,54,15.60
2014,05,28,09,55,15.60
2014,05,28,09,56,15.60
2014,05,28,09,57,15.70
2014,05,28,09,58,15.70
2014,05,28,09,59,15.80
2014,05,28,10,00,15.80
2014,05,28,10,01,15.80
2014,05,28,10,02,15.80
2014,05,28,10,03,15.80
2014,05,28,10,04,15.80
2014,05,28,10,05,15.90
2014,05,28,10,06,15.90
2014,05,28,10,07,15.90
2014,05,28,10,08,15.90
2014,05,28,10,09,16.00
2014,05,28,10,10,16.00
2014,05,28,10,11,16.00
2014,05,28,10,12,16.10
2014,05,28,10,13,16.10
2014,05,28,10,14,16.10
2014,05,28,10,15,16.20
2014,05,28,10,16,16.20
2014,05,28,10,17,16.20
2014,05,28,10,18,16.20
2014,05,28,10,19,16.20
2014,05,28,10,20,16.20
2014,05,28,10,21,16.20
2014,05,28,10,22,16.30
2014,05,28,10,23,16.40
2014,05,28,10,24,16.50
2014,05,28,10,25,16.50
2014,05,28,10,26,16.60
2014,05,28,10,27,16.60
2014,05,28,10,28,16.60
2014,05,28,10,29,16.60
2014,05,28,10,30,16.70
2014,05,28,10,31,16.70
2014,05,28,10,32,16.70
2014,05,28,10,33,16.70
2014,05,28,10,34,16.70
2014,05,28,10,35,16.70
2014,05,28,10,36,16.60
2014,05,28,10,37,16.60
2014,05,28,10,38,16.50
2014,05,28,10,39,16.40
2014,05,28,10,40,16.30
2014,05,28,10,41,16.20
2014,05,28,10,42,16.20
2014,05,28,10,43,16.20
2014,05,28,10,44,16.20
2014,05,28,10,45,16.10
2014,05,28,10,46,16.10
2014,05,28,10,47,16.10
2014,05,28,10,48,16.10
2014,05,28,10,49,16.00
2014,05,28,10,50,16.00
2014,05,28,10,51,16.10
2014,05,28,10,52,16.00
2014,05,28,10,53,16.00
2014,05,28,10,54,16.10
2014,05,28,10,55,16.10
2014,05,28,10,56,16.10
2014,05,28,10,57,16.10
2014,05,28,10,58,16.00
2014,05,28,10,59,16.00
2014,05,28,11,00,16.00
2014,05,28,11,01,16.00
2014,05,28,11,02,16.00
2014,05,28,11,03,15.90
2014,05,28,11,04,15.90
2014,05,28,11,05,15.90
2014,05,28,11,06,15.90
2014,05,28,11,07,16.00
2014,05,28,11,08,16.00
2014,05,28,11,09,16.10
2014,05,28,11,10,16.00
2014,05,28,11,11,16.00
2014,05,28,11,12,15.90
2014,05,28,11,13,15.90
2014,05,28,11,14,15.90
2014,05,28,11,15,15.90
2014,05,28,11,16,15.80
2014,05,28,11,17,15.80
2014,05,28,11,18,15.80
2014,05,28,11,19,15.80
2014,05,28,11,20,15.80
2014,05,28,11,21,15.80
2014,05,28,11,22,15.90
2014,05,28,11,23,15.90
2014,05,28,11,24,15.90
2014,05,28,11,25,16.00
2014,05,28,11,26,16.00
2014,05,28,11,27,16.10
2014,05,28,11,28,16.10
2014,05,28,11,29,16.20
2014,05,28,11,30,16.30
2014,05,28,11,31,16.40
2014,05,28,11,32,16.40
2014,05,28,11,33,16.50
2014,05,28,11,34,16.60
2014,05,28,11,35,16.60
2014,05,28,11,36,16.70
2014,05,28,11,37,16.70
2014,05,28,11,38,16.70
2014,05,28,11,39,16.70
2014,05,28,11,40,16.70
2014,05,28,11,41,16.70
2014,05,28,11,42,16.70
2014,05,28,11,43,16.70
2014,05,28,11,44,16.80
2014,05,28,11,45,16.80
2014,05,28,11,46,16.80
2014,05,28,11,47,16.80
2014,05,28,11,48,16.80
2014,05,28,11,49,16.80
2014,05,28,11,50,16.90
2014,05,28,11,51,17.00
2014,05,28,11,52,17.00
2014,05,28,11,53,17.10
2014,05,28,11,54,17.20
2014,05,28,11,55,17.20
2014,05,28,11,56,17.30
2014,05,28,11,57,17.30
2014,05,28,11,58,17.30
2014,05,28,11,59,17.30
2014,05,28,12,00,17.30
2014,05,28,12,01,17.30
2014,05,28,12,02,17.30
2014,05,28,12,03,17.30
2014,05,28,12,04,17.30
2014,05,28,12,05,17.40
2014,05,28,12,06,17.40
2014,05,28,12,07,17.30
2014,05,28,12,08,17.20
2014,05,28,12,09,17.10
2014,05,28,12,10,17.10
2014,05,28,12,11,17.00
2014,05,28,12,12,17.00
2014,05,28,12,13,17.00
2014,05,28,12,14,17.00
2014,05,28,12,15,17.00
2014,05,28,12,16,16.90
2014,05,28,12,17,16.90
2014,05,28,12,18,17.00
2014,05,28,12,19,17.10
2014,05,28,12,20,17.30
2014,05,28,12,21,17.30
2014,05,28,12,22,17.40
2014,05,28,12,23,17.50
2014,05,28,12,24,17.60
2014,05,28,12,25,17.70
2014,05,28,12,26,17.90
2014,05,28,12,27,18.00
2014,05,28,12,28,18.10
2014,05,28,12,29,18.20
2014,05,28,12,30,18.30
2014,05,28,12,31,18.30
2014,05,28,12,32,18.30
2014,05,28,12,33,18.20
2014,05,28,12,34,18.10
2014,05,28,12,35,18.00
2014,05,28,12,36,17.80
2014,05,28,12,37,17.60
2014,05,28,12,38,17.50
2014,05,28,12,39,17.50
2014,05,28,12,40,17.50
2014,05,28,12,41,17.40
2014,05,28,12,42,17.40
2014,05,28,12,43,17.40
2014,05,28,12,44,17.30
2014,05,28,12,45,17.30
2014,05,28,12,46,17.30
2014,05,28,12,47,17.30
2014,05,28,12,48,17.30
2014,05,28,12,49,17.30
2014,05,28,12,50,17.30
2014,05,28,12,51,17.20
2014,05,28,12,52,17.20
2014,05,28,12,53,17.10
2014,05,28,12,54,17.10
2014,05,28,12,55,17.00
2014,05,28,12,56,17.00
2014,05,28,12,57,16.90
2014,05,28,12,58,16.90
2014,05,28,12,59,16.90
2014,05,28,13,00,16.80
2014,05,28,13,01,16.80
2014,05,28,13,02,16.80
2014,05,28,13,03,16.80
2014,05,28,13,04,16.80
2014,05,28,13,05,16.80
2014,05,28,13,06,16.80
2014,05,28,13,07,16.90
2014,05,28,13,08,17.00
2014,05,28,13,09,17.10
2014,05,28,13,10,17.10
2014,05,28,13,11,17.10
2014,05,28,13,12,17.10
2014,05,28,13,13,17.10
2014,05,28,13,14,17.10
2014,05,28,13,15,17.10
2014,05,28,13,16,17.10
2014,05,28,13,17,17.10
2014,05,28,13,18,17.10
2014,05,28,13,19,17.10
2014,05,28,13,20,17.10
2014,05,28,13,21,17.20
2014,05,28,13,22,17.20
2014,05,28,13,23,17.30
2014,05,28,13,24,17.40
2014,05,28,13,25,17.50
2014,05,28,13,26,17.50
2014,05,28,13,27,17.60
2014,05,28,13,28,17.60
2014,05,28,13,29,17.70
2014,05,28,13,30,17.80
2014,05,28,13,31,17.80
2014,05,28,13,32,17.90
2014,05,28,13,33,17.90
2014,05,28,13,34,17.80
2014,05,28,13,35,17.80
2014,05,28,13,36,17.70
2014,05,28,13,37,17.70
2014,05,28,13,38,17.70
2014,05,28,13,39,17.70
2014,05,28,13,40,17.70
2014,05,28,13,41,17.70
2014,05,28,13,42,17.70
2014,05,28,13,43,17.80
2014,05,28,13,44,17.80
2014,05,28,13,45,17.90
2014,05,28,13,46,18.00
2014,05,28,13,47,18.10
2014,05,28,13,48,18.20
2014,05,28,13,49,18.20
2014,05,28,13,50,18.20
2014,05,28,13,51,18.20
2014,05,28,13,52,18.20
2014,05,28,13,53,18.20
2014,05,28,13,54,18.20
2014,05,28,13,55,18.20
2014,05,28,13,56,18.20
2014,05,28,13,57,18.20
2014,05,28,13,58,18.20
2014,05,28,13,59,18.20
2014,05,28,14,00,18.20
2014,05,28,14,01,18.20
2014,05,28,14,02,18.30
2014,05,28,14,03,18.30
2014,05,28,14,04,18.40
2014,05,28,14,05,18.50
2014,05,28,14,06,18.60
2014,05,28,14,07,18.60
2014,05,28,14,08,18.70
2014,05,28,14,09,18.70
2014,05,28,14,10,18.70
2014,05,28,14,11,18.70
2014,05,28,14,12,18.70
2014,05,28,14,13,18.70
2014,05,28,14,14,18.80
2014,05,28,14,15,18.80
2014,05,28,14,16,18.70
2014,05,28,14,17,18.60
2014,05,28,14,18,18.60
2014,05,28,14,19,18.60
2014,05,28,14,20,18.60
2014,05,28,14,21,18.60
2014,05,28,14,22,18.70
2014,05,28,14,23,18.80
2014,05,28,14,24,18.80
2014,05,28,14,25,18.90
2014,05,28,14,26,18.90
2014,05,28,14,27,18.90
2014,05,28,14,28,18.80
2014,05,28,14,29,18.70
2014,05,28,14,30,18.60
2014,05,28,14,31,18.50
2014,05,28,14,32,18.50
2014,05,28,14,33,18.60
2014,05,28,14,34,18.60
2014,05,28,14,35,18.80
2014,05,28,14,36,18.90
2014,05,28,14,37,19.00
2014,05,28,14,38,19.00
2014,05,28,14,39,19.00
2014,05,28,14,40,19.10
2014,05,28,14,41,19.00
2014,05,28,14,42,18.80
2014,05,28,14,43,18.60
2014,05,28,14,44,18.50
2014,05,28,14,45,18.40
2014,05,28,14,46,18.40
2014,05,28,14,47,18.50
2014,05,28,14,48,18.70
2014,05,28,14,49,18.70
2014,05,28,14,50,18.70
2014,05,28,14,51,18.80
2014,05,28,14,52,18.80
2014,05,28,14,53,18.80
2014,05,28,14,54,18.70
2014,05,28,14,55,18.60
2014,05,28,14,56,18.60
2014,05,28,14,57,18.60
2014,05,28,14,58,18.60
2014,05,28,14,59,18.60
2014,05,28,15,00,18.60
2014,05,28,15,01,18.60
2014,05,28,15,02,18.50
2014,05,28,15,03,18.50
2014,05,28,15,04,18.50
2014,05,28,15,05,18.50
2014,05,28,15,06,18.50
2014,05,28,15,07,18.60
2014,05,28,15,08,18.70
2014,05,28,15,09,18.80
2014,05,28,15,10,18.80
2014,05,28,15,11,18.80
2014,05,28,15,12,18.70
2014,05,28,15,13,18.60
2014,05,28,15,14,18.50
2014,05,28,15,15,18.60
2014,05,28,15,16,18.60
2014,05,28,15,17,18.60
2014,05,28,15,18,18.70
2014,05,28,15,19,18.80
2014,05,28,15,20,18.90
2014,05,28,15,21,19.00
2014,05,28,15,22,18.80
2014,05,28,15,23,18.70
2014,05,28,15,24,18.60
2014,05,28,15,25,18.70
2014,05,28,15,26,18.70
2014,05,28,15,27,18.70
2014,05,28,15,28,18.70
2014,05,28,15,29,18.80
2014,05,28,15,30,18.80
2014,05,28,15,31,18.80
2014,05,28,15,32,18.80
2014,05,28,15,33,18.80
2014,05,28,15,34,18.80
2014,05,28,15,35,18.80
2014,05,28,15,36,18.80
2014,05,28,15,37,18.70
2014,05,28,15,38,18.80
2014,05,28,15,39,18.80
2014,05,28,15,40,18.70
2014,05,28,15,41,18.70
2014,05,28,15,42,18.70
2014,05,28,15,43,18.70
2014,05,28,15,44,18.60
2014,05,28,15,45,18.50
2014,05,28,15,46,18.50
2014,05,28,15,47,18.60
2014,05,28,15,48,18.60
2014,05,28,15,49,18.60
2014,05,28,15,50,18.60
2014,05,28,15,51,18.60
2014,05,28,15,52,18.60
2014,05,28,15,53,18.60
2014,05,28,15,54,18.50
2014,05,28,15,55,18.50
2014,05,28,15,56,18.50
2014,05,28,15,57,18.60
2014,05,28,15,58,18.60
2014,05,28,15,59,18.70
2014,05,28,16,00,18.80
2014,05,28,16,01,18.90
2014,05,28,16,02,18.90
2014,05,28,16,03,18.80
2014,05,28,16,04,18.70
2014,05,28,16,05,18.60
2014,05,28,16,06,18.60
2014,05,28,16,07,18.50
2014,05,28,16,08,18.50
2014,05,28,16,09,18.40
2014,05,28,16,10,18.40
2014,05,28,16,11,18.30
2014,05,28,16,12,18.40
2014,05,28,16,13,18.40
2014,05,28,16,14,18.50
2014,05,28,16,15,18.40
2014,05,28,16,16,18.40
2014,05,28,16,17,18.40
2014,05,28,16,18,18.40
2014,05,28,16,19,18.40
2014,05,28,16,20,18.50
2014,05,28,16,21,18.50
2014,05,28,16,22,18.50
2014,05,28,16,23,18.50
2014,05,28,16,24,18.50
2014,05,28,16,25,18.50
2014,05,28,16,26,18.50
2014,05,28,16,27,18.60
2014,05,28,16,28,18.60
2014,05,28,16,29,18.60
2014,05,28,16,30,18.40
2014,05,28,16,31,18.20
2014,05,28,16,32,18.10
2014,05,28,16,33,18.00
2014,05,28,16,34,17.90
2014,05,28,16,35,17.80
2014,05,28,16,36,17.80
2014,05,28,16,37,17.90
2014,05,28,16,38,17.90
2014,05,28,16,39,17.90
2014,05,28,16,40,18.00
2014,05,28,16,41,18.00
2014,05,28,16,42,18.10
2014,05,28,16,43,18.10
2014,05,28,16,44,18.00
2014,05,28,16,45,18.00
2014,05,28,16,46,17.90
2014,05,28,16,47,17.80
2014,05,28,16,48,17.80
2014,05,28,16,49,17.80
2014,05,28,16,50,17.90
2014,05,28,16,51,18.00
2014,05,28,16,52,18.10
2014,05,28,16,53,18.20
2014,05,28,16,54,18.20
2014,05,28,16,55,18.10
2014,05,28,16,56,18.10
2014,05,28,16,57,18.10
2014,05,28,16,58,18.10
2014,05,28,16,59,18.10
2014,05,28,17,00,18.10
2014,05,28,17,01,18.10
2014,05,28,17,02,18.10
2014,05,28,17,03,18.10
2014,05,28,17,04,18.00
2014,05,28,17,05,18.00
2014,05,28,17,06,18.00
2014,05,28,17,07,18.10
2014,05,28,17,08,18.20
2014,05,28,17,09,18.20
2014,05,28,17,10,18.30
2014,05,28,17,11,18.20
2014,05,28,17,12,18.20
2014,05,28,17,13,18.20
2014,05,28,17,14,18.20
2014,05,28,17,15,18.20
2014,05,28,17,16,18.10
2014,05,28,17,17,18.00
2014,05,28,17,18,17.90
2014,05,28,17,19,17.80
2014,05,28,17,20,17.70
2014,05,28,17,21,17.70
2014,05,28,17,22,17.70
2014,05,28,17,23,17.70
2014,05,28,17,24,17.60
2014,05,28,17,25,17.60